ANIK F1

Last updated on Fri Nov 29 2024 00:02:40 GMT+0000 (Coordinated Universal Time)

1 26624U 00076A 24333.52757684 -.00000031 00000+0 00000+0 0 9995 2 26624 3.7265 81.6832 0012018 174.3743 199.7009 0.98960552 37474

Satellite not in orbit

ANIK F1